Вернуться в каталог

FENGYUN 1C DEB

АктивенSSO
NORAD 32432·DEBRIS·🇨🇳 China

Запущен May 10, 1999 с Taiyuan Satellite Launch Center

Loading…

Ближайшие Пролёты (ближайшие 24 часа)

TLE

СвежийSource: Space-Track

Эпоха: Sep 12, 2026, 07:51 UTC

1 32432U 99025DAU 26255.32749108  .00003094  00000-0  59222-3 0  9992
2 32432  98.1471 289.9615 0166164 178.8191 181.3434 14.56052090746727

Отслеживайте FENGYUN 1C DEB в реальном времени с AllMySat

Download on the App Store